Theta_e
296 296 296 296 296 295 294 294 289 296 297 296 295 298 297 298 298 299 299 302 303 306 307 306 308 314 315 312 312 313 313 315 314 313 313 316 318 318 321 325 328 325 325 323
296 296 296 296 296 295 295 293 295 294 296 296 298 297 298 297 298 298 298 302 304 304 306 306 307 313 311 310 310 312 311 313 312 309 314 318 319 319 318 320 321 323 323 322
295 295 295 296 295 294 294 294 293 289 293 290 292 296 298 298 298 299 300 300 300 300 304 305 306 310 311 310 310 311 309 310 311 311 310 314 314 316 316 316 322 324 322 323
294 294 295 295 294 294 294 294 291 291 288 294 296 295 294 298 298 299 299 301 303 303 306 306 304 309 311 310 311 310 308 309 311 311 311 312 313 314 314 315 316 319 317 322
295 295 295 294 294 294 294 292 294 294 292 297 297 297 301 301 299 303 302 303 304 305 307 307 308 307 308 310 308 309 309 309 310 310 309 311 313 310 313 314 316 317 317 319
295 295 295 294 294 294 293 293 293 297 294 296 297 297 299 299 300 303 303 304 304 306 306 307 306 306 306 307 309 310 309 309 310 307 307 308 311 314 316 317 317 315 318 318
295 295 295 295 295 295 293 293 294 296 294 296 296 297 298 300 302 304 304 304 304 304 306 305 305 305 306 306 307 307 308 308 308 307 307 305 311 314 315 318 318 317 319 318
295 295 295 295 296 295 295 293 294 296 294 296 297 297 299 299 300 302 303 305 304 303 304 304 305 304 304 305 306 308 307 307 307 306 307 306 308 315 316 315 318 315 320 319
295 295 295 295 296 296 295 294 293 293 293 293 296 296 298 298 300 302 302 300 300 302 301 303 305 306 306 306 306 305 306 305 306 307 308 307 312 314 313 313 319 314 318 317
295 295 295 295 296 297 295 295 293 294 294 292 294 295 296 298 298 299 302 298 303 300 300 302 303 305 305 307 305 307 307 307 309 307 307 308 311 317 314 319 318 313 314 315
294 295 295 295 296 296 297 295 294 294 291 293 295 295 295 295 296 294 297 297 299 302 303 303 303 302 304 305 305 308 307 308 308 307 309 309 314 315 314 313 311 310 309 307
295 295 295 296 296 296 297 294 294 294 293 291 295 296 296 295 295 295 297 296 299 301 302 300 303 304 302 306 307 310 311 308 308 308 308 310 310 313 310 306 307 306 307 304
296 296 296 297 296 296 296 295 294 294 294 293 292 292 294 294 295 297 298 298 301 299 300 304 306 305 308 307 309 305 304 304 311 310 306 305 305 302 301 299 298 299 299 299
298 298 297 298 297 296 297 296 294 294 291 288 290 293 293 295 295 295 297 299 299 299 301 304 304 306 307 308 303 301 300 301 308 308 305 304 300 298 298 296 294 293 293 293
298 299 298 298 298 297 297 297 295 294 292 291 293 294 296 297 297 295 295 297 299 301 302 300 305 306 306 303 302 297 297 299 302 305 301 300 299 296 293 292 291 290 289 288
299 299 299 299 298 297 298 295 295 294 294 294 292 293 295 298 297 296 296 298 299 300 303 301 303 305 305 305 300 295 295 295 297 300 297 297 295 292 291 289 288 287 286 285
299 299 299 299 298 297 298 297 296 295 295 296 294 294 295 300 298 297 299 299 300 302 301 302 304 304 301 298 296 292 293 294 295 295 297 295 294 292 290 288 286 284 283 283
299 299 299 298 299 298 298 297 298 295 295 296 296 294 298 300 298 301 298 299 302 301 300 303 305 299 297 294 292 291 290 292 292 293 291 291 290 289 289 287 285 284 283 282
299 299 299 298 297 296 297 298 296 296 296 296 296 297 300 299 300 301 301 298 302 300 303 304 299 294 291 291 289 288 288 288 289 290 289 288 287 286 286 285 284 284 282 281
299 298 295 294 296 298 296 297 295 296 297 298 297 295 298 301 299 301 301 301 303 305 303 297 294 290 288 287 287 286 286 285 285 288 288 287 285 284 283 282 282 281 280 279
297 294 296 297 297 296 297 297 298 297 298 297 297 298 300 300 303 301 300 302 303 305 304 302 295 291 287 286 285 283 283 283 283 283 283 283 283 282 281 280 279 278 277 276
297 297 297 296 296 297 298 298 298 296 297 292 299 300 300 301 299 301 301 303 303 306 302 296 287 287 285 284 283 282 281 281 281 281 281 281 280 280 279 278 276 274 274 273
298 297 296 298 297 300 297 299 300 299 298 298 301 302 300 298 300 301 302 301 299 299 286 287 285 286 284 283 282 281 280 280 279 278 278 277 275 275 275 273 274 274 273 273
296 296 294 296 297 291 290 287 288 294 298 299 299 301 300 298 299 300 294 294 294 289 289 287 283 283 282 281 280 278 275 274 273 272 273 273 273 272 273 274 274 274 273 272
293 292 291 285 289 291 293 294 296 294 295 298 298 296 299 295 295 296 298 295 290 289 286 278 280 279 278 277 276 274 272 271 272 273 272 273 273 273 273 274 274 273 272 272
289 287 291 290 290 290 292 294 295 294 295 296 295 295 295 295 294 294 291 295 292 282 275 276 278 276 276 275 274 273 274 274 274 274 274 274 274 274 273 273 273 273 273 273
288 286 282 280 284 285 290 291 291 292 297 298 292 291 294 292 288 287 285 283 277 275 278 277 273 276 273 272 274 275 276 275 276 275 275 274 274 274 273 272 272 272 272 272
Wind_Speed
11 11 11 12 12 9 3 1 2 3 8 1 2 6 4 3 9 5 5 5 8 4 8 11 7 4 4 3 1 4 3 3 4 9 3 5 3 2 5 3 3 4 3 5
10 11 11 11 11 6 2 1 2 7 6 3 1 4 9 6 10 11 4 5 2 4 5 6 4 4 1 3 4 4 3 3 3 6 4 2 1 1 5 6 3 6 3 5
10 11 11 12 12 6 6 1 3 3 1 2 3 5 8 7 10 13 11 10 11 13 7 17 4 2 2 4 5 7 3 3 4 3 4 1 6 8 7 5 4 4 8 10
13 13 13 14 11 6 8 2 4 4 3 2 10 4 4 9 9 10 11 4 12 8 4 11 4 3 3 5 6 3 3 3 3 6 10 11 14 15 14 15 14 7 12 12
13 12 13 12 10 7 7 2 2 2 3 4 3 1 3 11 16 5 5 12 7 6 8 7 2 2 3 3 1 3 0 1 1 4 7 7 12 18 15 14 18 16 16 18
15 15 16 13 13 13 4 5 4 2 3 4 1 2 5 11 12 9 9 2 4 4 3 3 3 3 2 2 4 3 2 2 2 4 6 11 8 4 6 9 17 15 16 16
16 16 17 17 14 18 12 7 2 2 2 3 4 8 13 14 11 3 3 2 3 4 4 4 2 2 2 3 6 5 6 3 2 3 5 3 4 6 8 12 7 10 17 15
16 17 18 18 16 17 20 11 4 1 2 2 7 9 9 11 10 7 4 2 3 9 4 2 3 3 3 4 7 10 7 4 1 2 3 8 8 3 6 7 5 11 6 19
18 19 18 16 15 16 24 18 15 2 1 4 2 3 6 4 7 7 4 6 7 3 3 2 1 1 2 3 5 3 5 2 3 1 2 4 3 0 2 8 6 16 22 18
20 19 17 16 15 16 18 11 24 4 2 4 2 3 4 3 3 3 4 8 6 3 2 2 1 2 2 3 3 3 3 2 11 7 4 6 5 8 4 4 5 11 15 15
20 19 17 16 15 13 23 14 23 15 3 4 3 4 3 4 1 1 4 4 3 3 2 1 1 2 3 2 4 3 5 5 4 3 3 8 11 6 3 4 9 11 13 15
19 19 19 17 15 13 22 6 20 26 2 4 6 15 17 11 14 3 2 2 2 3 2 1 2 2 3 3 3 3 3 3 3 4 1 8 11 13 12 8 12 11 11 11
22 21 21 19 18 17 25 15 20 13 2 4 6 9 21 22 24 14 2 2 3 2 3 2 1 4 2 2 1 4 7 6 2 4 6 10 12 14 14 15 14 14 13 12
18 16 22 21 20 20 24 17 22 17 2 2 5 6 10 8 14 24 21 5 2 1 1 2 2 3 3 1 3 3 3 11 6 5 4 5 10 12 11 15 15 15 15 14
16 15 17 20 21 22 21 23 24 26 6 3 4 13 12 14 14 16 16 11 3 1 2 2 2 2 2 2 2 3 8 5 3 3 4 7 5 9 11 16 14 13 12 14
13 13 13 16 21 22 18 2 20 28 18 2 3 4 4 1 8 9 9 7 3 3 2 3 3 3 2 1 2 5 9 12 10 3 8 10 11 13 14 15 13 13 13 13
14 13 12 17 23 26 6 3 5 34 21 2 3 4 4 2 4 3 2 6 3 2 2 2 2 3 4 2 2 7 9 11 11 6 1 10 12 7 12 14 15 18 19 18
15 15 14 18 25 21 9 4 5 29 7 2 2 4 3 0 2 2 2 3 3 2 2 1 1 2 2 3 3 6 9 6 12 12 13 11 10 12 10 12 11 12 12 11
16 16 16 19 8 4 7 12 31 11 3 4 3 2 2 3 1 3 2 2 1 2 2 1 3 2 3 3 3 6 9 8 7 8 10 10 12 11 10 10 10 11 10 9
20 20 4 2 8 27 23 11 1 1 2 3 4 2 2 2 1 2 3 2 2 2 2 3 3 2 5 6 6 5 6 8 9 3 6 6 9 9 10 10 8 9 9 11
8 3 2 12 36 7 2 3 3 3 3 3 3 4 3 2 1 4 3 2 2 2 2 2 2 3 3 4 6 6 6 8 8 8 9 10 8 7 7 8 11 11 11 11
13 15 19 9 3 2 3 3 4 4 5 2 4 3 3 2 2 2 2 2 2 2 2 3 1 3 7 5 4 6 7 8 10 12 10 12 12 11 12 11 11 11 13 14
24 6 3 3 1 3 6 6 3 3 3 4 4 3 3 0 0 1 1 2 3 2 4 2 1 7 6 5 5 5 8 10 11 10 10 10 11 12 12 12 13 14 15 14
3 3 4 2 2 2 3 3 4 1 1 4 3 2 1 1 2 1 3 3 2 3 1 3 3 6 6 5 6 7 4 7 9 9 12 13 15 15 14 13 13 14 13 11
3 2 3 1 2 0 1 1 3 2 0 2 2 2 2 1 3 2 2 3 1 3 3 2 4 5 7 6 6 5 5 6 8 12 13 14 14 15 14 12 11 12 12 12
3 5 3 1 3 2 2 2 2 2 1 1 2 3 2 2 2 3 1 1 4 2 2 2 5 5 4 5 5 9 13 13 12 12 12 12 12 12 11 9 8 8 8 7
3 2 2 2 2 2 2 2 2 4 1 2 2 3 2 2 3 1 1 3 2 2 3 3 4 6 6 7 12 12 12 12 11 10 8 9 9 8 7 7 8 8 8 7
Wind_Direction
292 294 297 304 306 314 331 58 317 74 121 135 219 233 231 235 282 345 303 267 243 288 313 304 320 99 49 312 98 61 37 116 265 238 228 203 172 221 233 235 180 202 256 265
285 288 293 297 295 285 171 256 270 286 190 269 254 294 271 237 259 261 260 296 20 99 289 308 337 57 40 66 79 135 166 146 290 318 51 82 360 323 244 294 275 227 232 265
284 290 290 283 280 260 184 252 289 302 106 187 206 256 263 246 255 265 253 260 253 253 280 292 271 200 131 64 82 91 101 159 200 234 250 192 287 258 238 205 281 321 250 277
278 276 276 275 274 231 178 195 238 214 283 306 312 206 291 267 273 237 238 249 238 204 230 276 254 82 82 48 118 80 112 198 235 261 270 278 268 271 266 252 252 244 275 292
277 277 272 266 259 205 191 203 227 294 284 281 295 311 302 282 260 250 254 225 262 217 208 246 86 38 104 203 211 110 50 182 275 290 285 266 279 274 261 244 251 253 253 268
273 270 268 259 245 205 190 212 258 273 291 330 285 281 299 296 290 239 242 195 306 286 231 229 234 196 187 141 147 137 170 185 103 263 294 305 292 244 217 266 260 242 236 230
269 266 262 260 250 217 196 198 177 248 273 250 263 270 296 300 298 251 264 223 171 268 283 280 299 336 288 200 207 168 161 194 166 266 326 269 227 40 322 276 263 292 251 233
270 272 270 265 252 225 205 210 187 259 266 287 283 306 316 313 349 0 14 56 271 309 339 35 22 350 350 260 221 196 183 147 207 223 237 283 287 24 13 321 281 306 242 123
274 273 269 264 250 227 205 202 204 170 253 250 42 329 300 309 353 345 353 350 311 358 56 46 114 196 318 311 308 213 153 145 166 191 273 272 307 200 337 356 267 339 132 126
273 267 263 257 255 246 206 197 203 176 232 260 247 247 286 337 357 310 332 334 343 3 49 77 149 256 291 256 245 186 141 174 221 233 250 271 310 23 3 289 26 47 28 92
268 263 255 255 254 238 197 191 198 193 197 288 267 280 260 327 356 82 299 348 359 359 44 116 256 196 252 290 242 220 185 181 198 183 219 269 0 322 7 108 73 63 64 70
264 261 257 253 241 227 192 170 197 204 223 241 275 276 271 249 237 185 312 179 304 336 315 12 303 299 313 299 283 355 259 216 194 192 275 28 29 75 84 62 72 63 89 81
264 252 248 244 228 217 195 188 186 183 256 275 262 251 265 255 240 228 173 235 156 253 287 315 297 270 289 274 24 291 352 358 207 142 33 32 44 61 64 65 59 61 68 82
269 252 229 226 220 211 198 182 184 179 133 193 275 290 259 265 237 228 219 208 124 137 288 268 281 275 217 339 71 14 320 317 343 88 140 87 32 46 53 63 56 54 56 63
259 248 228 216 210 203 198 192 196 196 173 225 279 304 286 255 230 215 219 219 168 160 288 271 258 254 317 92 96 40 346 329 318 81 12 90 43 58 60 68 59 51 59 61
242 234 230 209 194 188 178 150 204 199 207 23 317 295 300 11 204 202 178 186 167 215 279 252 279 239 211 107 82 20 351 358 13 72 71 78 91 72 69 71 65 62 61 59
236 232 214 193 184 180 180 184 187 186 185 216 285 304 271 324 142 149 126 160 197 195 231 253 265 24 27 46 63 359 356 13 20 31 16 46 43 75 70 72 70 68 67 64
229 215 196 187 180 174 196 209 175 161 132 205 256 266 312 84 174 109 112 138 182 218 230 249 288 40 44 76 32 9 5 9 31 43 62 81 76 67 66 77 77 70 66 66
212 188 179 142 152 138 166 172 152 151 153 181 204 231 269 338 103 95 58 86 155 250 218 154 80 29 47 74 46 17 11 11 351 47 65 66 67 62 56 61 61 75 74 72
173 142 105 135 167 125 116 150 120 138 239 203 215 193 252 169 165 98 150 176 220 209 191 98 70 78 86 65 52 31 23 22 8 15 51 63 62 61 61 61 61 74 79 81
141 139 152 133 131 113 156 138 165 153 211 207 231 188 184 178 161 174 203 180 167 214 169 134 112 122 130 100 72 41 32 38 47 62 61 56 69 74 79 73 71 76 80 82
143 115 113 123 139 145 137 154 146 194 217 209 184 175 180 168 166 197 177 170 162 242 89 81 90 123 126 116 93 76 70 63 48 48 56 58 62 64 73 75 74 78 93 102
119 83 146 188 144 139 164 169 172 195 194 183 164 147 130 72 300 117 142 133 204 95 43 121 209 129 119 118 114 83 78 95 99 90 80 79 73 79 88 89 96 100 97 103
84 137 105 114 163 217 175 166 166 216 121 130 104 103 144 138 114 138 99 237 82 62 35 202 153 135 129 121 114 114 88 88 97 94 100 98 101 98 101 108 115 111 103 107
98 81 93 154 236 181 125 75 90 9 224 120 104 62 78 23 79 15 106 37 322 197 217 186 144 127 124 118 119 121 119 113 105 113 109 107 109 105 99 103 106 107 108 104
75 43 107 27 76 21 46 48 75 3 41 117 66 102 75 28 100 66 178 161 220 228 192 166 120 118 124 131 131 140 137 127 124 122 123 123 121 116 113 110 104 103 107 122
60 41 48 91 87 111 42 48 346 321 41 86 82 71 190 97 67 127 27 193 217 172 108 101 125 141 144 134 132 138 136 134 136 137 143 140 138 137 133 123 133 118 111 110